N7DTY Weather Reports


time (UTC)temp
F
wind
direction
speed
knots
gust
knots
rain 1hr
in
rain 24hr
in
rain mn
in
humidity
%
barometer
mb
20200531064531 50 173 2.6 7.8 0.01 0.64 0.64 96 1012.5
20200531063055 50 212 1.7 4.3 0.02 0.64 0.64 96 1012.5
20200531061534 50 181 1.7 9.6 0.02 0.64 0.64 96 1012.7
20200531060111 50 176 1.7 7.8 0.02 0.64 0.64 96 1012.7
20200531054532 50 178 2.6 11.3 0.01 0.63 0.63 96 1012.7
20200531053048 50 229 3.5 11.3 0.00 0.62 0.62 96 1012.7
20200531051524 50 142 1.7 8.7 0.01 0.62 0.62 96 1012.4
20200531050029 50 129 2.6 8.7 0.01 0.62 0.62 96 1011.9
20200531044550 50 196 3.5 8.7 0.02 0.62 0.62 96 1011.7
20200531043115 50 171 2.6 6.1 0.03 0.62 0.62 97 1011.7
20200531041552 50 194 0.9 3.5 0.03 0.61 0.61 97 1011.3
20200531040019 50 182 0.9 6.1 0.05 0.61 0.61 97 1011.7
20200531034520 50 171 1.7 6.1 0.05 0.60 0.60 97 1011.8
20200531033043 50 184 1.7 7.0 0.05 0.59 0.59 96 1012.3
20200531031516 51 178 3.5 10.4 0.05 0.57 0.57 96 1012.8
20200531030039 51 171 4.3 13.9 0.04 0.56 0.56 96 1012.9
20200531024523 51 78 4.3 16.5 0.06 0.55 0.55 96 1012.7
20200531023013 51 142 6.1 13.9 0.10 0.54 0.54 96 1012.4
20200531021508 52 166 4.3 12.2 0.13 0.53 0.53 96 1011.9
20200531020006 53 155 2.6 8.7 0.17 0.52 0.52 97 1011.4
20200531014507 53 171 2.6 13.0 0.18 0.49 0.49 97 1011.1
20200531013007 53 193 2.6 7.0 0.14 0.44 0.44 97 1010.7
20200531011503 53 183 3.5 15.6 0.12 0.40 0.40 97 1010.9
20200531010211 53 205 4.3 10.4 0.08 0.35 0.35 97 1010.7
20200531004644 53 190 2.6 6.1 0.08 0.31 0.31 97 1010.3
20200531003151 53 180 1.7 3.5 0.10 0.30 0.30 97 1009.5
20200531001736 53 227 1.7 4.3 0.09 0.28 0.28 97 1009.2
20200531000218 53 200 0.9 1.7 0.09 0.27 0.27 96 1009.2
20200530234718 53 193 0.9 2.6 0.06 0.23 0.23 96 1009.6
20200530233313 53 210 0.0 1.7 0.03 0.20 0.20 96 1009.4
20200530231629 53 273 0.0 0.9 0.03 0.19 0.19 96 1009.2
20200530230118 53 293 0.0 1.7 0.03 0.18 0.18 96 1008.9
20200530224615 53 166 0.0 0.9 0.03 0.17 0.17 96 1009.6
20200530223143 53 166 0.0 2.6 0.05 0.17 0.17 96 1009.7
20200530221609 53 180 0.0 2.6 0.04 0.16 0.16 96 1010.0
20200530220052 53 214 0.0 1.7 0.04 0.15 0.15 96 1009.7
20200530214642 53 214 0.0 0.9 0.03 0.14 0.14 96 1009.7
20200530213111 53 214 0.0 0.9 0.01 0.12 0.12 96 1009.9
20200530211630 53 214 0.0 1.7 0.02 0.12 0.12 96 1010.0
20200530210143 53 214 0.0 1.7 0.01 0.11 0.11 95 1010.1
20200530204630 53 214 0.0 1.7 0.01 0.11 0.11 95 1009.9
20200530203046 53 212 0.0 0.9 0.01 0.11 0.11 95 1010.2
20200530201619 53 211 0.0 0.9 0.00 0.10 0.10 95 1010.8
20200530200101 53 212 0.0 1.7 0.00 0.10 0.10 95 1010.6
20200530194545 53 157 0.0 2.6 0.00 0.10 0.10 95 1010.9
20200530193143 53 114 0.0 2.6 0.00 0.10 0.10 95 1010.8
20200530191606 53 197 0.0 1.7 0.02 0.10 0.10 94 1010.8
20200530190110 53 136 0.9 2.6 0.03 0.10 0.10 96 1011.1
20200530184547 53 232 0.0 1.7 0.04 0.10 0.10 95 1010.9
20200530183101 53 232 0.0 1.7 0.05 0.10 0.10 96 1011.3
20200530181544 53 350 0.0 1.7 0.04 0.08 0.08 95 1010.2
20200530180040 53 217 0.0 0.9 0.05 0.07 0.07 95 1010.9
20200530174541 53 217 0.0 2.6 0.06 0.06 0.06 95 1011.9
20200530173035 53 223 0.0 5.2 0.05 0.05 0.05 94 1011.9
20200530171629 54 208 1.7 7.8 0.04 0.04 0.04 93 1012.3
20200530170034 54 189 2.6 8.7 0.02 0.02 0.02 91 1012.2
20200530164541 54 180 0.9 7.0 0.00 0.00 0.00 91 1011.9
20200530163033 54 215 3.5 9.6 0.00 0.00 0.00 90 1011.7
20200530161555 54 203 1.7 9.6 0.00 0.00 0.00 90 1010.5
20200530160026 55 198 1.7 7.0 0.00 0.00 0.00 89 1010.0
20200530154530 55 178 0.9 5.2 0.00 0.00 0.00 88 1009.3
20200530153022 55 185 1.7 7.8 0.00 0.00 0.00 88 1009.2
20200530151524 55 207 0.9 5.2 0.00 0.00 0.00 88 1009.0
20200530150027 55 196 0.9 6.1 0.00 0.00 0.00 88 1009.3
20200530144514 54 145 0.9 6.1 0.00 0.00 0.00 88 1009.5
20200530143011 54 173 0.9 2.6 0.00 0.00 0.00 88 1009.5
20200530141510 54 196 0.9 7.0 0.00 0.00 0.00 88 1009.7
20200530140014 54 218 0.0 3.5 0.00 0.00 0.00 89 1010.0
20200530134508 54 194 0.9 5.2 0.00 0.00 0.00 89 1010.1
20200530133009 54 153 0.9 3.5 0.00 0.00 0.00 88 1010.1
20200530131552 54 171 0.0 2.6 0.00 0.00 0.00 89 1010.0
20200530130008 53 198 0.9 2.6 0.00 0.00 0.00 89 1009.9
20200530124506 53 194 0.0 2.6 0.00 0.00 0.00 89 1009.9
20200530123007 53 186 0.0 0.9 0.00 0.00 0.00 89 1009.9
20200530121504 53 186 0.9 2.6 0.00 0.00 0.00 90 1009.9
20200530120007 53 178 0.9 2.6 0.00 0.00 0.00 90 1010.1
20200530114502 53 217 0.0 1.7 0.00 0.00 0.00 88 1009.9
20200530113112 53 217 0.9 2.6 0.00 0.00 0.00 89 1010.3
20200530113001 53 156 0.9 2.6 0.00 0.00 0.00 89 1010.3
20200530111647 53 167 0.0 2.6 0.00 0.00 0.00 89 1010.5
20200530110203 53 186 1.7 4.3 0.00 0.00 0.00 88 1010.4
20200530104709 53 186 0.0 3.5 0.00 0.00 0.00 87 1010.3
20200530103118 53 202 1.7 5.2 0.00 0.00 0.00 87 1010.5
20200530101623 53 202 2.6 7.8 0.00 0.00 0.00 87 1010.3
20200530100141 54 211 0.9 7.8 0.00 0.00 0.00 87 1010.3
20200530094650 54 190 1.7 5.2 0.00 0.00 0.00 85 1010.4
20200530093128 54 146 1.7 6.1 0.00 0.00 0.00 84 1010.4
20200530091610 54 149 0.9 4.3 0.00 0.00 0.00 85 1010.4
20200530090139 54 254 0.0 1.7 0.00 0.00 0.00 82 1010.3
20200530084622 54 254 0.0 2.6 0.00 0.00 0.00 82 1010.3
20200530083135 55 64 0.0 1.7 0.00 0.00 0.00 81 1010.6
20200530081719 55 233 0.0 0.9 0.00 0.00 0.00 81 1010.9
20200530080054 56 221 0.0 1.7 0.00 0.00 0.00 79 1011.1
20200530073057 56 144 0.0 1.7 0.00 0.00 0.00 79 1011.2
20200530071554 56 144 0.0 2.6 0.00 0.00 0.00 79 1011.3
20200530070201 56 175 0.0 3.5 0.00 0.00 0.00 77 1011.2